| time (UTC) | temp F | wind direction | speed MPH | gust MPH | rain 1hr in | rain 24hr in | rain mn in | humidity % | barometer mb |
| 20260505173138 | 57 | 26 | 2.0 | 3.0 | 0.00 | 0.00 | 0.00 | 30 | 1007.9 |
| 20260505172635 | 58 | 7 | 4.0 | 6.0 | 0.00 | 0.00 | 0.00 | 29 | 1008.0 |
| 20260505172132 | 58 | 251 | 1.0 | 3.0 | 0.00 | 0.00 | 0.00 | 31 | 1008.0 |
| 20260505171631 | 57 | 84 | 1.0 | 2.0 | 0.00 | 0.00 | 0.00 | 36 | 1008.0 |
| 20260505171129 | 56 | 12 | 3.0 | 4.0 | 0.00 | 0.00 | 0.00 | 31 | 1008.1 |
| 20260505170626 | 57 | 319 | 4.0 | 6.0 | 0.00 | 0.00 | 0.00 | 30 | 1008.0 |
| 20260505170122 | 58 | 298 | 4.0 | 6.0 | 0.00 | 0.00 | 0.00 | 31 | 1008.0 |
| 20260505165617 | 57 | 275 | 3.0 | 3.0 | 0.00 | 0.00 | 0.00 | 29 | 1008.1 |
| 20260505165114 | 56 | 238 | 3.0 | 3.0 | 0.00 | 0.00 | 0.00 | 33 | 1007.9 |
| 20260505164609 | 54 | 268 | 7.0 | 9.0 | 0.00 | 0.00 | 0.00 | 32 | 1007.8 |
| 20260505164107 | 57 | 51 | 2.0 | 3.0 | 0.00 | 0.00 | 0.00 | 32 | 1008.0 |
| 20260505163605 | 56 | 84 | 1.0 | 2.0 | 0.00 | 0.00 | 0.00 | 32 | 1007.9 |
| 20260505163102 | 56 | 356 | 2.0 | 3.0 | 0.00 | 0.00 | 0.00 | 34 | 1007.8 |
| 20260505162600 | 55 | 19 | 4.0 | 4.0 | 0.00 | 0.00 | 0.00 | 34 | 1007.8 |
| 20260505162058 | 55 | 106 | 1.0 | 3.0 | 0.00 | 0.00 | 0.00 | 37 | 1007.5 |
| 20260505161554 | 55 | 311 | 4.0 | 6.0 | 0.00 | 0.00 | 0.00 | 31 | 1007.7 |
| 20260505161052 | 55 | 207 | 2.0 | 3.0 | 0.00 | 0.00 | 0.00 | 34 | 1007.9 |
| 20260505160549 | 54 | 321 | 3.0 | 3.0 | 0.00 | 0.00 | 0.00 | 33 | 1007.8 |
| 20260505153026 | 54 | 179 | 1.0 | 2.0 | 0.00 | 0.00 | 0.00 | 40 | 1007.7 |
| 20260505152523 | 51 | 159 | 0.0 | 1.0 | 0.00 | 0.00 | 0.00 | 41 | 1007.8 |
| 20260505152018 | 53 | 4 | 2.0 | 2.0 | 0.00 | 0.00 | 0.00 | 36 | 1007.8 |
| 20260505151514 | 54 | 314 | 2.0 | 2.0 | 0.00 | 0.00 | 0.00 | 38 | 1007.9 |
| 20260505151012 | 53 | 329 | 1.0 | 1.0 | 0.00 | 0.00 | 0.00 | 38 | 1007.7 |
| 20260505150508 | 53 | 296 | 1.0 | 3.0 | 0.00 | 0.00 | 0.00 | 38 | 1007.8 |
| 20260505140433 | 51 | 328 | 3.0 | 4.0 | 0.00 | 0.00 | 0.00 | 42 | 1008.1 |
| 20260505124846 | 48 | 33 | 3.0 | 3.0 | 0.00 | 0.00 | 0.00 | 52 | 1008.0 |
| 20260505124343 | 48 | 225 | 1.0 | 1.0 | 0.00 | 0.00 | 0.00 | 51 | 1008.0 |
| 20260505123839 | 46 | 255 | 2.0 | 2.0 | 0.00 | 0.00 | 0.00 | 52 | 1007.8 |
| 20260505123336 | 46 | 274 | 2.0 | 2.0 | 0.00 | 0.00 | 0.00 | 54 | 1008.0 |
| 20260505122832 | 45 | 86 | 0.0 | 1.0 | 0.00 | 0.00 | 0.00 | 54 | 1007.9 |
| 20260505122330 | 45 | 259 | 2.0 | 2.0 | 0.00 | 0.00 | 0.00 | 53 | 1008.2 |
| 20260505121826 | 46 | 128 | 1.0 | 1.0 | 0.00 | 0.00 | 0.00 | 53 | 1008.0 |
| 20260505121324 | 46 | 303 | 2.0 | 3.0 | 0.00 | 0.00 | 0.00 | 52 | 1007.7 |
| 20260505120819 | 46 | 249 | 4.0 | 4.0 | 0.00 | 0.00 | 0.00 | 51 | 1007.8 |
| 20260505120316 | 45 | 216 | 0.0 | 0.0 | 0.00 | 0.00 | 0.00 | 53 | 1007.5 |
| 20260505115814 | 45 | 151 | 0.0 | 0.0 | 0.00 | 0.00 | 0.00 | 55 | 1007.6 |
| 20260505115312 | 44 | 170 | 2.0 | 2.0 | 0.00 | 0.00 | 0.00 | 54 | 1007.6 |
| 20260505114810 | 44 | 188 | 0.0 | 1.0 | 0.00 | 0.00 | 0.00 | 53 | 1007.3 |
| 20260505114306 | 44 | 196 | 0.0 | 0.0 | 0.00 | 0.00 | 0.00 | 58 | 1007.1 |
| 20260505113802 | 44 | 127 | 1.0 | 1.0 | 0.00 | 0.00 | 0.00 | 55 | 1006.6 |
| 20260505113259 | 43 | 173 | 0.0 | 1.0 | 0.00 | 0.00 | 0.00 | 59 | 1006.6 |
| 20260505112754 | 42 | 209 | 1.0 | 1.0 | 0.00 | 0.00 | 0.00 | 61 | 1006.3 |
| 20260505112252 | 42 | 153 | 0.0 | 0.0 | 0.00 | 0.00 | 0.00 | 62 | 1006.2 |
| 20260505111747 | 41 | 215 | 1.0 | 1.0 | 0.00 | 0.00 | 0.00 | 57 | 1006.1 |
| 20260505111243 | 41 | 185 | 0.0 | 0.0 | 0.00 | 0.00 | 0.00 | 62 | 1005.9 |
| 20260505110739 | 41 | 229 | 0.0 | 0.0 | 0.00 | 0.00 | 0.00 | 60 | 1005.9 |
| 20260505110237 | 40 | 200 | 0.0 | 0.0 | 0.00 | 0.00 | 0.00 | 59 | 1005.9 |
| 20260505102212 | 41 | 211 | 1.0 | 1.0 | 0.00 | 0.00 | 0.00 | 58 | 1006.1 |
| 20260505101711 | 42 | 170 | 0.0 | 0.0 | 0.00 | 0.00 | 0.00 | 57 | 1006.0 |
| 20260505101206 | 42 | 183 | 0.0 | 0.0 | 0.00 | 0.00 | 0.00 | 57 | 1005.9 |
| 20260505100703 | 42 | 187 | 0.0 | 1.0 | 0.00 | 0.00 | 0.00 | 54 | 1005.9 |
| 20260505100200 | 42 | 201 | 0.0 | 0.0 | 0.00 | 0.00 | 0.00 | 54 | 1006.0 |
| 20260505095655 | 42 | 201 | 0.0 | 0.0 | 0.00 | 0.00 | 0.00 | 55 | 1005.8 |
| 20260505095154 | 42 | 201 | 0.0 | 0.0 | 0.00 | 0.00 | 0.00 | 55 | 1005.7 |
| 20260505094649 | 42 | 201 | 0.0 | 0.0 | 0.00 | 0.00 | 0.00 | 56 | 1006.0 |
| 20260505094146 | 42 | 200 | 0.0 | 0.0 | 0.00 | 0.00 | 0.00 | 54 | 1005.7 |
| 20260505093642 | 42 | 201 | 0.0 | 0.0 | 0.00 | 0.00 | 0.00 | 55 | 1005.8 |
| 20260505093140 | 42 | 200 | 0.0 | 0.0 | 0.00 | 0.00 | 0.00 | 55 | 1005.5 |
| 20260505092636 | 42 | 199 | 0.0 | 0.0 | 0.00 | 0.00 | 0.00 | 56 | 1005.5 |
| 20260505092135 | 42 | 199 | 0.0 | 0.0 | 0.00 | 0.00 | 0.00 | 56 | 1005.8 |
| 20260505091632 | 43 | 199 | 0.0 | 0.0 | 0.00 | 0.00 | 0.00 | 54 | 1005.5 |
| 20260505091130 | 43 | 200 | 0.0 | 0.0 | 0.00 | 0.00 | 0.00 | 53 | 1005.5 |
| 20260505090627 | 43 | 200 | 0.0 | 0.0 | 0.00 | 0.00 | 0.00 | 53 | 1005.9 |
| 20260505090125 | 43 | 200 | 0.0 | 1.0 | 0.00 | 0.00 | 0.00 | 52 | 1005.8 |
| 20260505085622 | 43 | 183 | 0.0 | 0.0 | 0.00 | 0.00 | 0.00 | 52 | 1005.5 |
| 20260505085120 | 44 | 183 | 0.0 | 0.0 | 0.00 | 0.00 | 0.00 | 51 | 1005.7 |
| 20260505084618 | 44 | 183 | 0.0 | 0.0 | 0.00 | 0.00 | 0.00 | 52 | 1005.8 |
| 20260505084116 | 44 | 183 | 0.0 | 0.0 | 0.00 | 0.00 | 0.00 | 52 | 1005.4 |
| 20260505083613 | 44 | 178 | 0.0 | 1.0 | 0.00 | 0.00 | 0.00 | 52 | 1005.3 |
| 20260505083109 | 44 | 161 | 0.0 | 1.0 | 0.00 | 0.00 | 0.00 | 54 | 1005.2 |
| 20260505082605 | 44 | 175 | 0.0 | 0.0 | 0.00 | 0.00 | 0.00 | 52 | 1005.0 |
| 20260505082103 | 44 | 199 | 0.0 | 0.0 | 0.00 | 0.00 | 0.00 | 51 | 1005.1 |
| 20260505081559 | 44 | 136 | 2.0 | 2.0 | 0.00 | 0.00 | 0.00 | 52 | 1004.9 |
| 20260505081056 | 45 | 176 | 1.0 | 1.0 | 0.00 | 0.00 | 0.00 | 52 | 1004.6 |
| 20260505080552 | 45 | 182 | 0.0 | 0.0 | 0.00 | 0.00 | 0.00 | 51 | 1004.5 |
| 20260505080049 | 45 | 189 | 2.0 | 2.0 | 0.00 | 0.00 | 0.00 | 49 | 1004.3 |
| 20260505075545 | 45 | 238 | 2.0 | 3.0 | 0.00 | 0.00 | 0.00 | 49 | 1004.3 |
| 20260505075042 | 46 | 164 | 0.0 | 0.0 | 0.00 | 0.00 | 0.00 | 51 | 1004.3 |
| 20260505074539 | 46 | 156 | 1.0 | 2.0 | 0.00 | 0.00 | 0.00 | 50 | 1004.3 |
| 20260505074036 | 46 | 225 | 0.0 | 1.0 | 0.00 | 0.00 | 0.00 | 50 | 1004.0 |
| 20260505073533 | 46 | 205 | 0.0 | 1.0 | 0.00 | 0.00 | 0.00 | 49 | 1004.2 |
| 20260505073032 | 46 | 308 | 2.0 | 2.0 | 0.00 | 0.00 | 0.00 | 51 | 1003.8 |
| 20260505072527 | 46 | 143 | 1.0 | 1.0 | 0.00 | 0.00 | 0.00 | 52 | 1003.8 |
| 20260505072023 | 46 | 219 | 1.0 | 1.0 | 0.00 | 0.00 | 0.00 | 50 | 1003.9 |
| 20260505071519 | 46 | 127 | 1.0 | 2.0 | 0.00 | 0.00 | 0.00 | 51 | 1003.8 |
| 20260505071018 | 47 | 110 | 1.0 | 2.0 | 0.00 | 0.00 | 0.00 | 48 | 1003.7 |
| 20260505070515 | 47 | 22 | 2.0 | 3.0 | 0.00 | 0.00 | 0.00 | 48 | 1003.4 |
| 20260505070010 | 47 | 322 | 1.0 | 1.0 | 0.00 | 0.00 | 0.00 | 48 | 1003.4 |
| 20260505065506 | 48 | 173 | 2.0 | 2.0 | 0.00 | 0.00 | 0.00 | 49 | 1003.4 |
| 20260505065003 | 48 | 15 | 4.0 | 6.0 | 0.00 | 0.00 | 0.00 | 48 | 1003.3 |
| 20260505064500 | 48 | 300 | 2.0 | 2.0 | 0.00 | 0.00 | 0.00 | 49 | 1003.3 |
| 20260505063958 | 48 | 118 | 2.0 | 2.0 | 0.00 | 0.00 | 0.00 | 48 | 1003.3 |
| 20260505063455 | 48 | 191 | 3.0 | 7.0 | 0.00 | 0.00 | 0.00 | 49 | 1003.3 |
| 20260505062951 | 48 | 30 | 2.0 | 2.0 | 0.00 | 0.00 | 0.00 | 54 | 1003.3 |
| 20260505062448 | 48 | 69 | 1.0 | 1.0 | 0.00 | 0.00 | 0.00 | 54 | 1003.4 |
| 20260505061945 | 48 | 161 | 0.0 | 0.0 | 0.00 | 0.00 | 0.00 | 54 | 1003.2 |
| 20260505061443 | 48 | 155 | 0.0 | 1.0 | 0.00 | 0.00 | 0.00 | 54 | 1003.2 |
| 20260505060940 | 49 | 148 | 1.0 | 1.0 | 0.00 | 0.00 | 0.00 | 54 | 1003.1 |
| 20260505060437 | 49 | 178 | 0.0 | 1.0 | 0.00 | 0.00 | 0.00 | 53 | 1003.0 |
| 20260505055933 | 49 | 207 | 2.0 | 3.0 | 0.00 | 0.00 | 0.00 | 51 | 1003.0 |
| 20260505055430 | 49 | 150 | 1.0 | 2.0 | 0.00 | 0.00 | 0.00 | 54 | 1003.0 |
| 20260505054926 | 49 | 169 | 0.0 | 0.0 | 0.00 | 0.00 | 0.00 | 54 | 1002.8 |
| 20260505054424 | 50 | 147 | 0.0 | 0.0 | 0.00 | 0.00 | 0.00 | 53 | 1002.8 |
| 20260505053922 | 50 | 126 | 1.0 | 2.0 | 0.00 | 0.00 | 0.00 | 52 | 1002.8 |
| 20260505053419 | 51 | 46 | 5.0 | 10.0 | 0.00 | 0.00 | 0.00 | 51 | 1002.9 |
| 20260505052916 | 51 | 150 | 2.0 | 2.0 | 0.00 | 0.00 | 0.00 | 51 | 1002.7 |
| 20260505052412 | 51 | 131 | 2.0 | 3.0 | 0.00 | 0.00 | 0.00 | 51 | 1002.5 |
| 20260505051910 | 52 | 202 | 0.0 | 1.0 | 0.00 | 0.00 | 0.00 | 50 | 1002.8 |
| 20260505051407 | 52 | 110 | 1.0 | 1.0 | 0.00 | 0.00 | 0.00 | 49 | 1002.4 |
| 20260505050905 | 52 | 102 | 1.0 | 1.0 | 0.00 | 0.00 | 0.00 | 50 | 1002.3 |
| 20260505050403 | 52 | 233 | 1.0 | 1.0 | 0.00 | 0.00 | 0.00 | 50 | 1002.4 |
| 20260505041330 | 53 | 232 | 1.0 | 1.0 | 0.00 | 0.00 | 0.00 | 47 | 1001.6 |
| 20260505040827 | 53 | 197 | 1.0 | 1.0 | 0.00 | 0.00 | 0.00 | 49 | 1001.5 |
| 20260505040325 | 54 | 295 | 2.0 | 3.0 | 0.00 | 0.00 | 0.00 | 48 | 1001.3 |
| 20260505035822 | 54 | 145 | 1.0 | 1.0 | 0.00 | 0.00 | 0.00 | 46 | 1001.5 |
| 20260505035317 | 54 | 235 | 1.0 | 1.0 | 0.00 | 0.00 | 0.00 | 47 | 1001.7 |
| 20260505034815 | 55 | 99 | 2.0 | 3.0 | 0.00 | 0.00 | 0.00 | 46 | 1001.4 |
| 20260505034311 | 54 | 271 | 0.0 | 0.0 | 0.00 | 0.00 | 0.00 | 46 | 1001.5 |
| 20260505033808 | 55 | 212 | 1.0 | 1.0 | 0.00 | 0.00 | 0.00 | 47 | 1001.4 |
| 20260505033305 | 55 | 329 | 2.0 | 2.0 | 0.00 | 0.00 | 0.00 | 46 | 1001.3 |
| 20260505032804 | 55 | 127 | 2.0 | 3.0 | 0.00 | 0.00 | 0.00 | 45 | 1001.1 |
| 20260505032259 | 55 | 214 | 1.0 | 1.0 | 0.00 | 0.00 | 0.00 | 45 | 1001.1 |
| 20260505031757 | 55 | 210 | 2.0 | 2.0 | 0.00 | 0.00 | 0.00 | 45 | 1000.8 |
| 20260505031253 | 55 | 147 | 1.0 | 1.0 | 0.00 | 0.00 | 0.00 | 44 | 1000.6 |
| 20260505030750 | 55 | 160 | 0.0 | 0.0 | 0.00 | 0.00 | 0.00 | 44 | 1000.9 |
| 20260505030246 | 55 | 2 | 1.0 | 1.0 | 0.00 | 0.00 | 0.00 | 43 | 1000.9 |
| 20260505025742 | 55 | 9 | 1.0 | 2.0 | 0.00 | 0.00 | 0.00 | 43 | 1000.7 |
| 20260505025240 | 55 | 178 | 0.0 | 0.0 | 0.00 | 0.00 | 0.00 | 42 | 1000.4 |
| 20260505024738 | 55 | 233 | 1.0 | 1.0 | 0.00 | 0.00 | 0.00 | 42 | 1000.6 |
| 20260505024235 | 55 | 156 | 0.0 | 0.0 | 0.00 | 0.00 | 0.00 | 41 | 1000.4 |
| 20260505023732 | 56 | 168 | 0.0 | 1.0 | 0.00 | 0.00 | 0.00 | 41 | 1000.3 |
| 20260505023230 | 56 | 173 | 0.0 | 1.0 | 0.00 | 0.00 | 0.00 | 41 | 1000.0 |
| 20260505022727 | 57 | 75 | 1.0 | 1.0 | 0.00 | 0.00 | 0.00 | 39 | 999.9 |
| 20260505022224 | 57 | 9 | 1.0 | 2.0 | 0.00 | 0.00 | 0.00 | 38 | 999.7 |
| 20260505021720 | 57 | 324 | 1.0 | 2.0 | 0.00 | 0.00 | 0.00 | 40 | 999.7 |
| 20260505021218 | 58 | 354 | 1.0 | 1.0 | 0.00 | 0.00 | 0.00 | 36 | 999.4 |
| 20260505020713 | 58 | 352 | 3.0 | 3.0 | 0.00 | 0.00 | 0.00 | 37 | 999.3 |
| 20260505020208 | 58 | 104 | 1.0 | 1.0 | 0.00 | 0.00 | 0.00 | 37 | 999.3 |
| 20260505015706 | 58 | 28 | 2.0 | 2.0 | 0.00 | 0.00 | 0.00 | 34 | 999.2 |
| 20260505015202 | 59 | 266 | 2.0 | 2.0 | 0.00 | 0.00 | 0.00 | 34 | 999.0 |
| 20260505014659 | 59 | 328 | 3.0 | 3.0 | 0.00 | 0.00 | 0.00 | 35 | 998.7 |
| 20260505014151 | 59 | 165 | 1.0 | 1.0 | 0.00 | 0.00 | 0.00 | 37 | 998.7 |
| 20260505013648 | 59 | 358 | 4.0 | 4.0 | 0.00 | 0.00 | 0.00 | 36 | 998.8 |
| 20260505013145 | 59 | 39 | 3.0 | 3.0 | 0.00 | 0.00 | 0.00 | 36 | 999.0 |
| 20260505012644 | 60 | 286 | 2.0 | 3.0 | 0.00 | 0.00 | 0.00 | 36 | 999.1 |
| 20260505012140 | 60 | 31 | 3.0 | 7.0 | 0.00 | 0.00 | 0.00 | 34 | 998.9 |
| 20260505011636 | 60 | 9 | 2.0 | 3.0 | 0.00 | 0.00 | 0.00 | 34 | 998.2 |
| 20260505011133 | 60 | 127 | 1.0 | 1.0 | 0.00 | 0.00 | 0.00 | 34 | 998.3 |
| 20260505010628 | 61 | 141 | 2.0 | 6.0 | 0.00 | 0.00 | 0.00 | 33 | 998.2 |
| 20260505010125 | 61 | 36 | 2.0 | 2.0 | 0.00 | 0.00 | 0.00 | 33 | 998.4 |
| 20260505005621 | 62 | 24 | 2.0 | 2.0 | 0.00 | 0.00 | 0.00 | 36 | 997.8 |
| 20260505005118 | 62 | 10 | 4.0 | 6.0 | 0.00 | 0.00 | 0.00 | 36 | 997.9 |
| 20260505004615 | 62 | 40 | 2.0 | 4.0 | 0.00 | 0.00 | 0.00 | 35 | 997.7 |
| 20260505004112 | 62 | 343 | 2.0 | 2.0 | 0.00 | 0.00 | 0.00 | 37 | 998.0 |
| 20260505003609 | 63 | 77 | 3.0 | 4.0 | 0.00 | 0.00 | 0.00 | 34 | 997.9 |
| 20260505003107 | 63 | 0 | 1.0 | 1.0 | 0.00 | 0.00 | 0.00 | 34 | 997.8 |
| 20260505002602 | 64 | 108 | 2.0 | 3.0 | 0.00 | 0.00 | 0.00 | 35 | 997.7 |
| 20260505002101 | 64 | 322 | 3.0 | 6.0 | 0.00 | 0.00 | 0.00 | 34 | 997.6 |
| 20260505001558 | 65 | 128 | 3.0 | 4.0 | 0.00 | 0.00 | 0.00 | 36 | 997.4 |
| 20260505001055 | 66 | 272 | 6.0 | 8.0 | 0.00 | 0.00 | 0.00 | 36 | 997.6 |
| 20260505000552 | 66 | 286 | 3.0 | 6.0 | 0.00 | 0.00 | 0.00 | 33 | 997.5 |
| 20260505000050 | 67 | 228 | 2.0 | 3.0 | 0.00 | 0.00 | 0.00 | 33 | 997.3 |
| 20260504235546 | 67 | 337 | 2.0 | 4.0 | 0.00 | 0.00 | 0.00 | 35 | 997.4 |
| 20260504235043 | 67 | 268 | 5.0 | 7.0 | 0.00 | 0.00 | 0.00 | 35 | 997.1 |
| 20260504234540 | 67 | 70 | 0.0 | 1.0 | 0.00 | 0.00 | 0.00 | 35 | 997.1 |
| 20260504234037 | 68 | 335 | 4.0 | 4.0 | 0.00 | 0.00 | 0.00 | 34 | 997.1 |
| 20260504233532 | 69 | 37 | 2.0 | 4.0 | 0.00 | 0.00 | 0.00 | 33 | 997.1 |
| 20260504233029 | 69 | 136 | 2.0 | 3.0 | 0.00 | 0.00 | 0.00 | 32 | 997.0 |
| 20260504232526 | 70 | 219 | 2.0 | 3.0 | 0.00 | 0.00 | 0.00 | 34 | 996.7 |
| 20260504232024 | 71 | 221 | 4.0 | 6.0 | 0.00 | 0.00 | 0.00 | 33 | 996.6 |
| 20260504231521 | 71 | 310 | 2.0 | 3.0 | 0.00 | 0.00 | 0.00 | 33 | 996.5 |
| 20260504231016 | 72 | 45 | 4.0 | 7.0 | 0.00 | 0.00 | 0.00 | 32 | 996.6 |
| 20260504230513 | 72 | 162 | 3.0 | 6.0 | 0.00 | 0.00 | 0.00 | 32 | 996.5 |
| 20260504230012 | 72 | 270 | 1.0 | 1.0 | 0.00 | 0.00 | 0.00 | 34 | 996.4 |
| 20260504225509 | 73 | 109 | 2.0 | 3.0 | 0.00 | 0.00 | 0.00 | 36 | 996.7 |
| 20260504225006 | 73 | 18 | 2.0 | 3.0 | 0.00 | 0.00 | 0.00 | 35 | 996.4 |
| 20260504224502 | 74 | 44 | 2.0 | 3.0 | 0.00 | 0.00 | 0.00 | 35 | 996.3 |
| 20260504223959 | 75 | 312 | 4.0 | 8.0 | 0.00 | 0.00 | 0.00 | 34 | 996.3 |
| 20260504223456 | 75 | 117 | 2.0 | 2.0 | 0.00 | 0.00 | 0.00 | 35 | 996.3 |
| 20260504222951 | 76 | 275 | 3.0 | 4.0 | 0.00 | 0.00 | 0.00 | 37 | 996.3 |
| 20260504222449 | 77 | 98 | 2.0 | 4.0 | 0.00 | 0.00 | 0.00 | 35 | 995.8 |
| 20260504221946 | 77 | 325 | 2.0 | 2.0 | 0.00 | 0.00 | 0.00 | 35 | 995.9 |
| 20260504221444 | 77 | 278 | 4.0 | 4.0 | 0.00 | 0.00 | 0.00 | 34 | 995.8 |
| 20260504220941 | 78 | 291 | 2.0 | 3.0 | 0.00 | 0.00 | 0.00 | 32 | 995.5 |
| 20260504220437 | 78 | 152 | 2.0 | 3.0 | 0.00 | 0.00 | 0.00 | 33 | 995.7 |
| 20260504215934 | 78 | 325 | 4.0 | 4.0 | 0.00 | 0.00 | 0.00 | 33 | 995.5 |
| 20260504215431 | 78 | 270 | 1.0 | 2.0 | 0.00 | 0.00 | 0.00 | 35 | 995.4 |
| 20260504214927 | 79 | 147 | 1.0 | 2.0 | 0.00 | 0.00 | 0.00 | 34 | 995.4 |
| 20260504214424 | 80 | 210 | 2.0 | 3.0 | 0.00 | 0.00 | 0.00 | 34 | 995.3 |
| 20260504213920 | 80 | 197 | 1.0 | 3.0 | 0.00 | 0.00 | 0.00 | 34 | 995.3 |
| 20260504213416 | 80 | 207 | 1.0 | 2.0 | 0.00 | 0.00 | 0.00 | 33 | 995.3 |
| 20260504212914 | 80 | 2 | 4.0 | 6.0 | 0.00 | 0.00 | 0.00 | 34 | 995.3 |
| 20260504212409 | 80 | 241 | 4.0 | 4.0 | 0.00 | 0.00 | 0.00 | 32 | 995.3 |
| 20260504211908 | 80 | 48 | 2.0 | 2.0 | 0.00 | 0.00 | 0.00 | 32 | 995.2 |
| 20260504211403 | 80 | 290 | 4.0 | 4.0 | 0.00 | 0.00 | 0.00 | 29 | 995.1 |
| 20260504210901 | 80 | 210 | 4.0 | 6.0 | 0.00 | 0.00 | 0.00 | 29 | 995.3 |
| 20260504210358 | 79 | 177 | 6.0 | 8.0 | 0.00 | 0.00 | 0.00 | 30 | 995.2 |
| 20260504205855 | 78 | 178 | 1.0 | 1.0 | 0.00 | 0.00 | 0.00 | 32 | 995.3 |
| 20260504205353 | 77 | 220 | 5.0 | 6.0 | 0.00 | 0.00 | 0.00 | 31 | 995.5 |
| 20260504204850 | 77 | 237 | 2.0 | 2.0 | 0.00 | 0.00 | 0.00 | 32 | 995.5 |
| 20260504204349 | 78 | 214 | 2.0 | 4.0 | 0.00 | 0.00 | 0.00 | 33 | 995.2 |
| 20260504203848 | 78 | 217 | 0.0 | 1.0 | 0.00 | 0.00 | 0.00 | 31 | 995.3 |
| 20260504203344 | 78 | 299 | 4.0 | 7.0 | 0.00 | 0.00 | 0.00 | 31 | 995.5 |
| 20260504202840 | 79 | 204 | 2.0 | 3.0 | 0.00 | 0.00 | 0.00 | 30 | 995.4 |
| 20260504202337 | 78 | 39 | 2.0 | 3.0 | 0.00 | 0.00 | 0.00 | 31 | 995.5 |
| 20260504201834 | 78 | 323 | 2.0 | 4.0 | 0.00 | 0.00 | 0.00 | 29 | 995.6 |
| 20260504201331 | 80 | 107 | 2.0 | 4.0 | 0.00 | 0.00 | 0.00 | 29 | 995.6 |
| 20260504200829 | 81 | 284 | 4.0 | 7.0 | 0.00 | 0.00 | 0.00 | 31 | 995.7 |
| 20260504200325 | 80 | 239 | 4.0 | 4.0 | 0.00 | 0.00 | 0.00 | 28 | 995.5 |
| 20260504195821 | 81 | 273 | 4.0 | 6.0 | 0.00 | 0.00 | 0.00 | 29 | 995.9 |
| 20260504195317 | 80 | 131 | 0.0 | 1.0 | 0.00 | 0.00 | 0.00 | 32 | 995.8 |
| 20260504194814 | 79 | 313 | 5.0 | 7.0 | 0.00 | 0.00 | 0.00 | 29 | 995.6 |
| 20260504194310 | 78 | 17 | 3.0 | 4.0 | 0.00 | 0.00 | 0.00 | 30 | 995.5 |
| 20260504193806 | 78 | 159 | 3.0 | 3.0 | 0.00 | 0.00 | 0.00 | 29 | 995.7 |
| 20260504193304 | 78 | 208 | 3.0 | 6.0 | 0.00 | 0.00 | 0.00 | 31 | 995.8 |
| 20260504192803 | 79 | 190 | 2.0 | 3.0 | 0.00 | 0.00 | 0.00 | 30 | 995.8 |
| 20260504192300 | 78 | 159 | 4.0 | 7.0 | 0.00 | 0.00 | 0.00 | 30 | 996.0 |
| 20260504191759 | 78 | 242 | 8.0 | 13.0 | 0.00 | 0.00 | 0.00 | 31 | 996.0 |
| 20260504191255 | 78 | 350 | 1.0 | 2.0 | 0.00 | 0.00 | 0.00 | 32 | 996.2 |
| 20260504190751 | 77 | 163 | 1.0 | 1.0 | 0.00 | 0.00 | 0.00 | 32 | 996.2 |
| 20260504190247 | 77 | 27 | 5.0 | 7.0 | 0.00 | 0.00 | 0.00 | 32 | 996.1 |
| 20260504185744 | 78 | 310 | 5.0 | 8.0 | 0.00 | 0.00 | 0.00 | 32 | 996.3 |
| 20260504185241 | 78 | 107 | 1.0 | 2.0 | 0.00 | 0.00 | 0.00 | 33 | 996.3 |
| 20260504184737 | 79 | 291 | 4.0 | 6.0 | 0.00 | 0.00 | 0.00 | 31 | 996.4 |
| 20260504184233 | 78 | 195 | 4.0 | 6.0 | 0.00 | 0.00 | 0.00 | 31 | 996.7 |
| 20260504183729 | 77 | 158 | 2.0 | 3.0 | 0.00 | 0.00 | 0.00 | 33 | 996.4 |
| 20260504183226 | 77 | 124 | 5.0 | 8.0 | 0.00 | 0.00 | 0.00 | 32 | 996.4 |
| 20260504182724 | 77 | 282 | 7.0 | 11.0 | 0.00 | 0.00 | 0.00 | 31 | 996.5 |
| 20260504182221 | 77 | 338 | 3.0 | 3.0 | 0.00 | 0.00 | 0.00 | 31 | 996.7 |
| 20260504181719 | 78 | 308 | 6.0 | 11.0 | 0.00 | 0.00 | 0.00 | 31 | 996.7 |
| 20260504181216 | 79 | 277 | 4.0 | 7.0 | 0.00 | 0.00 | 0.00 | 32 | 996.6 |
| 20260504180715 | 77 | 263 | 4.0 | 6.0 | 0.00 | 0.00 | 0.00 | 32 | 996.5 |
| 20260504180213 | 77 | 173 | 4.0 | 8.0 | 0.00 | 0.00 | 0.00 | 34 | 996.7 |
| 20260504175710 | 77 | 264 | 4.0 | 7.0 | 0.00 | 0.00 | 0.00 | 32 | 996.4 |
| 20260504175207 | 76 | 291 | 6.0 | 8.0 | 0.00 | 0.00 | 0.00 | 32 | 996.6 |
| 20260504174705 | 78 | 340 | 4.0 | 6.0 | 0.00 | 0.00 | 0.00 | 31 | 996.7 |
| 20260504174203 | 77 | 291 | 3.0 | 4.0 | 0.00 | 0.00 | 0.00 | 32 | 996.7 |
| 20260504173659 | 77 | 237 | 2.0 | 3.0 | 0.00 | 0.00 | 0.00 | 32 | 996.5 |